Location: Springfield
(37.2150°N, 93.2980°W)
Time: 07:54:09
(UTC-05:00)

Cosmos 2341 Rocket - Pass Details

Date: 19 April 2018
Orbit: 967 x 1005 km, 82.9° (Epoch: 24 May)

Event Time Altitude Azimuth Distance (km) Brightness Sun altitude
Rises 20:59:12 0° 175° (S) 3,714 6.7 -13.4°
Reaches altitude 10° 21:01:45 10° 172° (S) 2,766 6.1 -13.8°
Maximum altitude 21:08:01 64° 93° (E) 1,099 4.0 -14.9°
Drops below altitude 10° 21:14:17 10° 13° (NNE) 2,763 6.6 -16.0°
Sets 21:16:49 0° 11° (N) 3,711 7.3 -16.5°
